This demonstration page uses our WeatherBlox Daily Observations layout. Learn more.

38.89511, -77.03637

Hourly Observations for April 28, 2015

Temp ( °F °C ) Dew Point ( °F °C ) Humidity (%) Winds ( mph kmh ) Pressure ( in mb ) Visibility ( mi km ) Precip ( " mm )
12:52 am 00:52 Mostly Cloudy 51 10.6 36 2.2 56 56 NW 10 17 29.91 1013 10 16.0934 0 0
1:52 am 01:52 Mostly Cloudy 50 10 35 1.7 57 57 NW 13 20 29.9 1013 10 16.0934 0 0
2:52 am 02:52 Partly Cloudy 49 9.4 35 1.7 59 59 NW 15 24 29.89 1012 10 16.0934 0 0
3:52 am 03:52 Mostly Cloudy 49 9.4 35 1.7 59 59 NW 12 19 29.89 1012 10 16.0934 0 0
4:52 am 04:52 Partly Cloudy 49 9.4 35 1.7 59 59 NW 9 15 29.88 1012 10 16.0934 0 0
5:52 am 05:52 Mostly Cloudy 49 9.4 36 2.2 61 61 NNW 10 17 29.9 1013 10 16.0934 0 0
6:52 am 06:52 Partly Cloudy 50 10 36 2.2 59 59 WNW 8 13 29.91 1013 10 16.0934 0 0
7:52 am 07:52 Mostly Sunny 53 11.7 37 2.8 55 55 NW 12 19 29.93 1014 10 16.0934 0 0
8:52 am 08:52 Mostly Sunny 56 13.3 39 3.9 53 53 NNW 16 26 29.94 1014 10 16.0934 0 0
9:52 am 09:52 Sunny 59 15 41 5 51 51 NW 20 31 29.93 1014 10 16.0934 0 0
10:52 am 10:52 Mostly Sunny 62 16.7 42 5.6 48 48 NNW 16 26 29.93 1014 10 16.0934 0 0
11:52 am 11:52 Mostly Sunny 65 18.3 42 5.6 43 43 WNW 16 26 29.92 1013 10 16.0934 0 0
12:52 pm 12:52 Partly Cloudy 68 20 43 6.1 40 40 NNW 13 20 29.9 1013 10 16.0934 0 0
1:52 pm 13:52 Mostly Cloudy 70 21.1 41 5 35 35 N 16 26 29.88 1012 10 16.0934 0 0
2:52 pm 14:52 Mostly Cloudy 68 20 40 4.4 36 36 NNW 12 19 29.88 1012 10 16.0934 0 0
3:52 pm 15:52 Mostly Cloudy 70 21.1 42 5.6 37 37 NW 10 17 29.86 1011 10 16.0934 0 0
4:52 pm 16:52 Mostly Cloudy 69 20.6 40 4.4 35 35 NNW 15 24 29.85 1011 10 16.0934 0 0
5:52 pm 17:52 Mostly Cloudy 72 22.2 41 5 33 33 NW 9 15 29.83 1010 10 16.0934 0 0
6:52 pm 18:52 Mostly Sunny 70 21.1 40 4.4 34 34 NNW 13 20 29.83 1010 10 16.0934 0 0
7:52 pm 19:52 Mostly Sunny 68 20 39 3.9 35 35 NW 8 13 29.82 1010 10 16.0934 0 0
8:52 pm 20:52 Clear 67 19.4 39 3.9 36 36 W 6 9 29.83 1010 10 16.0934 0 0
9:52 pm 21:52 Clear 64 17.8 40 4.4 41 41 W 7 11 29.85 1011 10 16.0934 0 0
10:52 pm 22:52 Clear 64 17.8 39 3.9 40 40 W 9 15 29.85 1011 10 16.0934 0 0
11:52 pm 23:52 Clear 63 17.2 38 3.3 40 40 WNW 10 17 29.84 1011 10 16.0934 0 0

Powered by AerisWeather